Wind_Speed
15 14 13 11 10 11 12 14 15 17 18 19 17 10 4 8 25 25 33 25 23 17 15 10 10 7 12 11 10 3 4 1 3 3 3 7 6 5 9 4 7 5 6 6 4
15 15 12 10 10 10 10 13 14 14 17 14 17 15 5 3 13 34 25 22 20 18 16 15 11 16 9 7 8 7 4 0 0 2 2 8 5 8 4 10 3 1 7 4 7
15 14 12 10 10 10 10 10 8 11 11 17 12 16 12 0 6 27 26 23 22 20 16 13 7 9 10 9 10 4 3 2 3 2 3 4 8 5 6 3 2 5 3 5 11
13 14 13 10 9 9 8 6 6 8 10 15 17 11 23 6 4 22 23 22 19 16 9 23 11 6 6 5 7 4 3 1 5 4 4 5 12 4 9 8 5 3 4 9 14
13 13 13 9 9 9 10 11 11 9 10 14 21 14 13 24 19 19 19 19 13 15 22 15 26 6 5 3 3 4 3 10 10 14 12 11 14 6 18 20 10 7 6 8 8
12 13 12 9 8 9 11 12 15 11 5 7 11 24 16 19 28 20 16 14 14 19 22 29 14 10 7 3 4 5 7 13 7 6 16 3 8 8 4 5 8 7 7 4 4
14 13 12 9 8 8 8 7 10 13 9 5 7 4 27 17 29 19 14 15 14 16 19 18 18 30 4 3 6 4 5 8 2 9 6 4 8 6 5 0 6 8 6 1 2
14 12 13 9 7 7 5 6 1 6 12 10 5 9 10 19 26 21 10 12 10 11 13 13 13 10 14 6 5 6 5 6 4 9 4 3 7 10 12 7 11 11 7 3 1
15 12 13 9 7 8 12 16 8 7 12 15 10 6 6 11 28 27 11 11 8 10 12 10 7 10 17 4 5 7 4 4 8 4 6 6 13 8 18 25 15 13 11 7 4
17 14 11 11 5 2 2 4 20 5 2 5 17 5 12 10 20 29 7 12 12 5 5 10 8 4 5 9 3 6 6 5 8 9 7 15 20 16 25 21 22 19 16 10 8
17 17 10 12 7 3 3 1 2 4 23 16 12 6 8 9 12 31 10 6 10 11 5 8 8 5 6 2 1 6 4 7 8 8 16 5 16 20 26 12 10 20 17 13 11
16 17 13 7 12 8 5 4 5 9 14 13 10 15 12 10 8 29 14 5 10 5 5 5 2 3 6 3 5 4 3 7 12 3 9 9 19 13 7 4 11 20 15 11 9
15 17 16 8 9 9 7 9 10 7 5 6 10 9 12 7 8 20 23 5 7 5 6 4 1 7 2 1 9 4 4 3 6 12 3 10 7 7 5 2 8 9 11 7 2
14 15 17 11 6 8 6 7 6 3 4 9 8 8 12 4 5 18 20 9 7 3 2 1 3 4 2 3 4 4 5 12 13 4 2 7 5 5 6 5 4 6 5 0 7
15 13 17 12 9 6 3 4 3 1 5 5 5 7 9 8 9 15 15 7 3 3 3 1 4 4 4 3 1 10 15 13 2 4 4 5 3 7 4 4 6 11 5 7 13
15 13 17 15 12 8 3 2 1 5 3 4 5 8 4 7 4 9 9 13 3 2 1 1 1 2 2 6 2 15 4 2 3 3 3 4 4 6 3 5 4 8 10 12 21
15 12 16 16 12 8 3 1 4 6 2 6 5 5 1 5 5 8 5 8 5 7 8 7 1 2 3 4 1 8 7 5 8 5 4 1 2 11 7 10 9 7 13 19 29
16 10 14 15 14 10 4 3 8 1 1 3 3 4 4 7 3 7 3 4 6 4 3 4 6 3 4 4 4 5 5 4 5 4 6 5 6 6 6 8 5 10 17 29 36
17 7 13 17 13 11 3 6 3 2 1 6 5 2 2 1 0 6 3 3 3 2 3 3 5 2 3 3 4 2 5 2 3 0 3 4 8 10 7 9 14 18 27 35 46
16 7 13 16 13 9 5 3 2 0 1 1 1 1 3 5 5 5 3 3 2 3 3 2 5 2 2 4 5 5 4 3 3 4 6 4 7 7 6 11 10 13 28 36 42
13 4 11 15 9 4 4 4 2 2 1 0 2 1 2 3 0 2 3 3 4 5 3 4 3 2 3 4 7 2 2 4 4 4 4 4 8 8 10 10 10 18 30 39 47
7 4 10 13 3 5 2 1 3 3 2 1 2 3 3 0 2 2 3 4 8 9 4 3 5 5 6 1 3 4 6 5 4 6 2 3 9 6 10 14 21 27 37 43 47
10 4 7 9 3 2 1 0 3 4 3 3 3 3 3 2 2 3 2 1 10 7 6 5 1 6 4 3 4 2 3 4 4 3 7 5 9 4 6 13 24 29 35 45 48
5 3 4 6 6 6 3 2 2 3 2 3 1 2 2 2 5 3 3 4 8 4 5 6 3 6 7 8 4 2 5 4 6 3 4 10 17 28 19 22 32 37 42 48 47
3 1 1 3 3 3 1 3 2 3 3 4 2 5 5 1 2 4 4 1 4 5 4 3 5 5 14 20 14 16 14 9 14 10 7 7 8 23 24 23 34 42 48 46 46
3 1 0 1 1 3 1 5 5 2 6 3 4 3 7 5 7 4 3 4 5 3 5 3 4 4 6 6 7 9 14 15 19 17 18 29 32 26 35 31 34 39 45 42 49
4 3 2 2 2 3 4 5 5 6 7 4 8 3 5 12 16 15 11 6 5 8 7 5 1 4 6 7 12 5 8 10 4 5 7 5 14 4 14 23 33 43 44 44 50
Wind_Direction
53 53 58 63 70 73 88 94 74 54 49 47 45 40 73 52 33 44 39 11 3 14 21 31 43 82 62 58 50 54 68 147 349 345 303 3 8 319 326 308 329 66 74 94 24
52 49 53 62 66 75 93 96 77 54 44 43 48 31 355 33 26 36 24 20 18 18 27 28 40 56 59 35 29 52 74 17 324 226 281 325 329 311 322 324 275 79 77 47 350
48 48 54 67 72 79 99 102 71 39 47 38 41 35 17 95 25 11 21 16 21 24 34 21 50 59 59 40 20 23 113 236 222 261 307 298 292 313 303 294 269 280 64 349 338
45 44 46 59 66 73 87 77 30 56 69 48 39 42 42 74 58 6 14 14 24 20 26 45 58 52 61 43 4 87 47 282 290 321 311 288 308 265 271 262 244 212 280 312 327
46 43 38 54 65 69 84 73 59 81 81 66 45 41 63 60 27 16 13 15 32 35 49 52 47 59 68 25 27 58 323 310 312 298 291 283 277 280 279 292 267 196 271 320 332
44 41 32 59 72 86 94 85 64 64 91 71 60 52 67 70 28 18 18 23 49 55 60 62 43 54 76 18 44 324 296 298 319 12 321 257 280 306 307 175 203 226 272 293 346
37 35 28 61 82 99 101 87 58 48 63 73 61 69 50 52 28 24 25 40 55 63 61 64 56 43 338 3 335 329 332 340 53 8 336 3 283 241 267 150 196 233 237 214 4
35 36 29 50 78 91 81 342 309 81 60 55 61 55 74 34 21 27 49 47 62 64 57 51 50 42 17 331 34 26 54 346 285 16 337 70 266 273 297 241 312 201 188 212 139
35 33 31 41 74 115 81 61 83 108 70 53 43 79 49 19 20 21 33 38 58 72 61 43 43 56 19 25 21 12 274 287 312 35 4 32 287 248 287 299 300 221 203 208 184
33 32 37 31 50 101 204 55 60 80 114 36 31 67 20 357 17 15 32 32 35 102 55 32 47 68 30 28 355 313 333 290 281 325 349 299 268 288 284 274 263 216 201 198 195
31 30 30 30 26 353 343 154 134 69 68 71 56 65 10 17 22 19 28 29 30 49 41 27 55 22 317 7 233 263 245 259 270 302 338 308 294 298 304 261 252 211 198 197 194
29 26 24 25 26 24 38 99 102 134 80 61 47 39 31 13 10 16 26 49 39 52 350 32 65 265 295 120 346 294 290 288 289 311 324 311 304 304 322 212 207 192 197 189 203
28 24 19 19 27 32 63 102 113 112 76 39 29 19 21 17 32 5 18 44 49 53 21 108 272 317 7 10 357 298 228 263 283 324 322 320 317 341 332 11 184 181 170 167 10
17 18 19 18 20 25 79 115 115 96 81 336 359 21 7 356 34 10 14 17 40 61 357 109 0 354 321 50 31 290 205 315 308 31 324 28 294 313 329 325 107 156 170 240 328
12 15 16 23 17 23 63 132 133 18 52 345 356 1 3 52 336 7 359 12 83 322 53 304 2 2 10 357 117 258 313 304 272 93 56 349 50 270 313 258 230 215 240 314 326
10 13 14 15 15 24 67 136 123 45 305 341 350 359 20 26 19 338 6 23 49 21 341 282 30 70 269 321 224 288 335 344 57 85 30 248 99 280 267 249 277 228 261 308 321
6 6 10 11 9 17 38 149 37 90 10 332 332 3 32 333 358 29 46 17 49 16 12 338 291 44 3 330 6 7 17 347 0 7 242 266 28 246 269 275 246 235 282 304 320
0 2 8 9 9 7 2 59 68 90 334 2 344 322 26 4 23 15 55 39 46 47 40 31 329 25 348 121 193 17 108 133 253 286 293 350 234 257 230 227 277 272 293 310 321
355 1 5 4 1 358 6 50 188 184 351 345 316 342 316 333 313 34 60 162 222 157 95 23 271 113 45 103 121 320 51 187 95 228 353 255 288 293 231 267 285 293 311 317 318
351 350 1 357 354 359 65 144 178 143 44 173 81 67 308 324 11 41 6 218 207 199 195 188 315 151 135 89 43 104 154 30 14 1 303 289 283 245 276 252 278 301 304 309 312
350 350 354 353 353 18 100 191 171 178 207 239 220 278 228 310 232 280 249 221 193 172 147 127 90 277 103 188 175 67 24 48 118 133 190 298 266 222 234 239 253 276 300 310 313
356 339 347 354 19 46 91 140 147 179 175 211 92 129 187 115 298 273 264 210 172 157 153 203 152 276 236 288 152 135 178 138 131 268 203 158 269 240 233 252 284 288 306 310 312
343 323 351 4 82 34 206 147 199 168 218 183 197 201 183 207 342 222 255 191 171 165 166 181 269 313 331 25 356 184 210 126 119 97 208 150 263 282 269 276 296 303 310 311 311
350 5 17 46 73 124 148 215 238 214 212 197 169 137 135 234 205 280 258 191 201 192 148 155 185 199 219 245 133 189 188 205 139 152 204 227 282 295 304 310 315 316 315 313 312
356 44 31 305 15 94 141 157 178 241 218 202 230 216 169 282 239 232 228 161 176 198 142 159 246 212 260 265 268 265 257 192 202 205 202 270 220 278 294 302 305 312 312 314 314
303 259 8 196 150 135 172 223 203 211 153 233 212 186 182 196 201 241 175 203 204 153 164 170 271 345 280 267 225 251 249 222 227 245 254 262 272 278 282 299 306 308 310 312 318
263 270 267 191 140 93 225 192 212 169 202 207 204 158 215 241 258 264 250 238 209 163 192 169 269 2 272 324 306 297 223 185 201 217 178 215 268 286 309 305 309 310 310 313 316
Height
1557 1555 1554 1553 1552 1551 1551 1551 1550 1549 1547 1545 1543 1541 1540 1540 1539 1534 1523 1539 1535 1531 1529 1528 1526 1523 1523 1524 1527 1528 1539 1547 1548 1548 1546 1546 1546 1543 1542 1540 1540 1538 1539 1538 1536
1559 1557 1556 1554 1554 1553 1553 1553 1552 1551 1549 1547 1546 1543 1541 1540 1539 1534 1541 1539 1536 1533 1531 1528 1526 1524 1525 1528 1529 1531 1546 1549 1547 1544 1545 1544 1545 1542 1542 1539 1538 1537 1537 1536 1535
1560 1558 1557 1556 1556 1555 1554 1555 1554 1553 1552 1549 1547 1545 1541 1540 1541 1543 1542 1540 1537 1535 1532 1529 1527 1526 1528 1533 1539 1540 1547 1546 1545 1544 1545 1545 1542 1540 1539 1537 1536 1536 1535 1534 1532
1561 1559 1558 1557 1557 1556 1556 1556 1555 1554 1553 1552 1549 1547 1544 1541 1554 1549 1544 1543 1540 1537 1534 1532 1529 1530 1537 1540 1541 1543 1545 1546 1544 1544 1545 1542 1540 1538 1537 1534 1533 1533 1532 1531 1529
1563 1561 1559 1558 1557 1557 1557 1557 1556 1555 1554 1553 1551 1548 1548 1544 1555 1551 1548 1546 1543 1541 1534 1533 1532 1535 1542 1543 1543 1545 1547 1545 1544 1541 1542 1540 1538 1537 1533 1531 1530 1530 1530 1528 1527
1565 1563 1561 1560 1559 1559 1559 1558 1557 1556 1555 1554 1554 1552 1549 1548 1557 1552 1550 1549 1546 1542 1540 1537 1539 1541 1543 1545 1546 1547 1545 1543 1540 1540 1539 1538 1536 1535 1530 1528 1528 1528 1527 1527 1526
1567 1565 1563 1561 1560 1560 1560 1559 1558 1557 1555 1555 1554 1554 1552 1561 1557 1554 1552 1550 1548 1545 1543 1543 1544 1544 1544 1546 1547 1546 1546 1543 1540 1541 1539 1538 1537 1533 1529 1528 1527 1526 1525 1525 1525
1569 1567 1565 1563 1562 1561 1561 1559 1558 1558 1556 1555 1554 1554 1557 1560 1558 1556 1554 1552 1550 1548 1547 1547 1546 1545 1546 1547 1547 1550 1551 1554 1539 1540 1540 1538 1536 1528 1526 1526 1525 1524 1523 1523 1523
1571 1569 1567 1565 1563 1563 1562 1560 1559 1559 1558 1557 1557 1555 1561 1562 1560 1556 1555 1553 1551 1550 1549 1548 1547 1551 1551 1555 1559 1564 1574 1562 1550 1541 1543 1542 1533 1525 1524 1523 1524 1523 1521 1521 1521
1573 1570 1568 1567 1565 1564 1562 1562 1561 1559 1559 1558 1558 1560 1565 1566 1562 1559 1555 1553 1551 1550 1550 1550 1551 1560 1565 1565 1582 1574 1576 1564 1557 1543 1543 1541 1530 1521 1518 1517 1515 1517 1517 1518 1518
1574 1571 1569 1568 1565 1564 1562 1562 1565 1565 1561 1567 1572 1568 1569 1567 1565 1561 1555 1555 1553 1553 1558 1557 1566 1575 1574 1572 1572 1574 1576 1572 1554 1546 1544 1536 1531 1516 1509 1509 1509 1511 1514 1514 1515
1575 1572 1569 1567 1565 1563 1562 1561 1562 1566 1570 1571 1571 1570 1569 1567 1566 1562 1558 1558 1559 1564 1562 1565 1572 1571 1570 1570 1572 1569 1573 1565 1551 1545 1547 1537 1526 1514 1507 1505 1505 1508 1513 1514 1512
1575 1573 1570 1567 1566 1565 1563 1563 1564 1565 1568 1573 1573 1572 1572 1571 1569 1567 1563 1563 1563 1566 1570 1569 1570 1569 1569 1569 1570 1563 1566 1567 1568 1548 1545 1541 1528 1521 1511 1509 1508 1510 1511 1511 1511
1576 1574 1571 1568 1568 1565 1565 1565 1565 1566 1574 1580 1575 1576 1574 1571 1572 1570 1567 1567 1565 1571 1570 1569 1570 1570 1568 1569 1574 1575 1555 1556 1555 1564 1570 1553 1562 1528 1520 1515 1514 1514 1511 1509 1508
1577 1574 1572 1568 1568 1567 1568 1566 1566 1567 1589 1581 1578 1577 1575 1575 1577 1574 1570 1566 1571 1572 1572 1567 1571 1571 1568 1570 1573 1565 1555 1557 1552 1571 1576 1560 1584 1534 1521 1517 1514 1512 1510 1508 1506
1578 1575 1572 1570 1569 1568 1567 1567 1568 1577 1593 1580 1580 1579 1578 1577 1578 1576 1572 1570 1572 1572 1571 1572 1572 1573 1572 1569 1569 1562 1558 1555 1557 1567 1592 1578 1576 1544 1527 1517 1512 1508 1507 1505 1502
1578 1576 1573 1570 1570 1567 1566 1567 1576 1588 1581 1584 1586 1582 1583 1584 1580 1580 1585 1589 1593 1584 1588 1576 1572 1574 1574 1574 1568 1570 1574 1581 1562 1581 1577 1567 1574 1532 1516 1511 1508 1508 1506 1503 1499
1579 1577 1575 1571 1569 1567 1566 1568 1584 1584 1586 1590 1587 1585 1584 1588 1585 1586 1588 1597 1598 1601 1607 1603 1569 1577 1577 1582 1588 1585 1598 1609 1600 1590 1575 1565 1574 1527 1509 1506 1506 1506 1503 1499 1493
1580 1577 1575 1572 1569 1567 1567 1586 1588 1590 1594 1594 1588 1583 1585 1588 1591 1588 1597 1603 1602 1600 1603 1610 1579 1578 1578 1578 1584 1585 1599 1596 1621 1621 1623 1569 1548 1518 1506 1506 1503 1500 1496 1492 1486
1580 1577 1576 1573 1570 1569 1570 1589 1592 1593 1593 1594 1589 1592 1590 1592 1591 1596 1594 1600 1600 1599 1599 1607 1611 1577 1578 1579 1582 1585 1592 1604 1623 1619 1595 1562 1573 1532 1513 1503 1498 1496 1493 1487 1480
1579 1577 1577 1574 1572 1571 1587 1594 1592 1593 1594 1595 1593 1598 1602 1601 1597 1600 1602 1597 1596 1599 1599 1607 1614 1581 1581 1582 1586 1593 1604 1607 1612 1620 1629 1612 1542 1513 1506 1499 1496 1491 1486 1479 1470
1580 1579 1578 1576 1575 1582 1593 1591 1592 1592 1593 1594 1596 1600 1601 1599 1601 1596 1595 1594 1594 1595 1603 1602 1614 1608 1577 1580 1580 1584 1591 1598 1605 1613 1629 1629 1550 1496 1495 1492 1490 1483 1478 1472 1464
1581 1580 1579 1577 1587 1591 1592 1591 1591 1592 1592 1594 1593 1595 1597 1598 1602 1596 1592 1592 1592 1594 1599 1601 1609 1597 1564 1584 1582 1588 1594 1597 1599 1604 1606 1620 1533 1491 1492 1489 1486 1480 1473 1464 1454
1583 1582 1580 1580 1583 1586 1593 1591 1591 1591 1592 1592 1594 1595 1596 1596 1596 1596 1591 1591 1593 1594 1594 1596 1605 1594 1574 1554 1579 1586 1586 1592 1587 1611 1597 1562 1506 1482 1484 1481 1472 1469 1466 1455 1446
1584 1583 1584 1588 1584 1586 1588 1590 1590 1590 1592 1592 1593 1593 1597 1600 1592 1594 1590 1591 1592 1592 1593 1596 1601 1590 1575 1564 1564 1562 1563 1580 1574 1564 1566 1519 1536 1495 1489 1483 1474 1468 1456 1448 1437
1585 1584 1584 1584 1584 1585 1587 1588 1587 1588 1590 1591 1592 1587 1590 1594 1586 1590 1584 1586 1586 1593 1594 1595 1594 1589 1579 1555 1562 1559 1550 1553 1556 1549 1543 1527 1512 1495 1488 1481 1475 1467 1452 1442 1431
1583 1583 1583 1584 1585 1588 1584 1581 1582 1582 1583 1582 1584 1587 1587 1581 1580 1580 1580 1581 1582 1586 1592 1596 1596 1592 1570 1556 1549 1546 1538 1543 1544 1544 1531 1534 1492 1490 1485 1481 1472 1458 1450 1440 1427